Data for 12/14/2017

Time Sea-Level Adjusted Pressure Absolute Pressure Temperature Relative Humidity Dew Point   
(mb) (inHg) (mb) (inHg) (C) (F) (%) (C) (F)
00:05 1029 30.39 858 25.34 -3.5 25.7 93 -4.4 24
00:10 1029 30.39 858 25.34 -3.7 25.3 93 -4.6 23.6
00:15 1029 30.39 858 25.34 -3.7 25.4 94 -4.6 23.8
00:20 1029 30.39 858 25.34 -3.7 25.4 93 -4.6 23.7
00:25 1029 30.39 858 25.34 -3.8 25.1 93 -4.8 23.4
00:30 1029 30.39 858 25.34 -3.9 25 94 -4.8 23.4
00:35 1029 30.39 858 25.34 -3.9 25 93 -4.8 23.4
00:40 1029 30.39 858 25.34 -3.8 25.1 94 -4.7 23.5
00:45 1029 30.39 858 25.34 -3.7 25.3 94 -4.6 23.6
00:50 1029 30.39 858 25.34 -3.7 25.4 93 -4.6 23.8
00:55 1029 30.39 858 25.34 -3.7 25.4 93 -4.6 23.7
01:00 1029 30.39 858 25.34 -3.8 25.2 93 -4.7 23.5
01:05 1029 30.39 858 25.34 -3.7 25.3 93 -4.6 23.7
01:10 1029 30.39 858 25.34 -3.7 25.3 93 -4.7 23.6
01:15 1029 30.39 858 25.34 -3.8 25.2 93 -4.7 23.5
01:20 1029 30.39 858 25.34 -3.8 25.2 93 -4.7 23.5
01:25 1029 30.39 858 25.34 -3.8 25.1 93 -4.7 23.5
01:30 1029 30.39 858 25.34 -3.8 25.1 94 -4.7 23.5
01:35 1029 30.39 858 25.34 -3.8 25.2 93 -4.7 23.5
01:40 1029 30.39 858 25.34 -3.8 25.2 93 -4.7 23.5
01:45 1029 30.39 859 25.37 -3.7 25.3 93 -4.7 23.6
01:50 1029 30.39 859 25.37 -3.8 25.2 93 -4.7 23.5
01:55 1029 30.39 859 25.37 -3.8 25.2 93 -4.7 23.5
02:00 1030 30.42 859 25.37 -3.8 25.1 93 -4.8 23.4
02:05 1030 30.42 859 25.37 -3.9 25.1 93 -4.8 23.4
02:10 1030 30.42 859 25.37 -3.8 25.1 93 -4.8 23.4
02:15 1029 30.39 859 25.37 -3.8 25.1 93 -4.7 23.5
02:20 1029 30.39 859 25.37 -3.8 25.1 93 -4.8 23.4
02:25 1029 30.39 859 25.37 -3.9 25.1 93 -4.8 23.4
02:30 1029 30.39 859 25.37 -3.9 25 93 -4.8 23.3
02:35 1029 30.39 859 25.37 -4 24.9 93 -4.9 23.2
02:40 1029 30.39 859 25.37 -4 24.8 93 -4.9 23.2
02:45 1029 30.39 858 25.34 -4 24.9 93 -4.9 23.1
02:50 1029 30.39 858 25.34 -4 24.7 93 -5 23
02:55 1029 30.39 858 25.34 -4 24.8 93 -5 23
03:00 1029 30.39 858 25.34 -4 24.8 93 -5 23
03:05 1029 30.39 858 25.34 -4.1 24.7 93 -5 23
03:10 1029 30.39 858 25.34 -4.1 24.7 93 -5 23
03:15 1029 30.39 858 25.34 -4.1 24.6 93 -5.1 22.9
03:20 1029 30.39 858 25.34 -4.2 24.4 93 -5.2 22.6
03:25 1029 30.39 858 25.34 -4.3 24.3 93 -5.3 22.5
03:30 1029 30.39 858 25.34 -4.4 24.1 93 -5.3 22.4
03:35 1029 30.39 858 25.34 -4.4 24.1 93 -5.4 22.4
03:40 1029 30.39 858 25.34 -4.3 24.3 93 -5.2 22.6
03:45 1029 30.39 858 25.34 -4.4 24 93 -5.4 22.3
03:50 1029 30.39 858 25.34 -4.6 23.7 93 -5.5 22.1
03:55 1029 30.39 858 25.34 -4.6 23.8 93 -5.5 22.1
04:00 1029 30.39 858 25.34 -4.6 23.8 93 -5.5 22.1
04:05 1029 30.39 858 25.34 -4.5 23.9 93 -5.4 22.2
04:10 1029 30.39 858 25.34 -4.6 23.8 93 -5.6 22
04:15 1029 30.39 858 25.34 -4.5 23.8 93 -5.5 22.1
04:20 1029 30.39 858 25.34 -4.6 23.8 93 -5.6 21.9
04:25 1029 30.39 858 25.34 -4.6 23.7 93 -5.6 21.9
04:30 1029 30.39 859 25.37 -4.7 23.6 92 -5.8 21.6
04:35 1029 30.39 859 25.37 -5 23.1 93 -6 21.2
04:40 1030 30.42 859 25.37 -5.1 22.8 92 -6.2 20.8
04:45 1030 30.42 859 25.37 -5.4 22.3 92 -6.4 20.4
04:50 1030 30.42 859 25.37 -5.5 22 92 -6.6 20.1
04:55 1030 30.42 859 25.37 -5.6 22 92 -6.6 20
05:00 1030 30.42 859 25.37 -5.8 21.6 92 -6.9 19.6
05:05 1030 30.42 859 25.37 -5.8 21.5 93 -6.8 19.7
05:10 1030 30.42 859 25.37 -5.6 21.9 93 -6.6 20.1
05:15 1030 30.42 859 25.37 -5.5 22 93 -6.5 20.2
05:20 1030 30.42 859 25.37 -5.3 22.4 93 -6.4 20.6
05:25 1030 30.42 859 25.37 -5.2 22.6 93 -6.2 20.8
05:30 1030 30.42 859 25.37 -5.1 22.9 93 -6.1 21
05:35 1030 30.42 859 25.37 -5 23 92 -6.1 21.1
05:40 1030 30.42 859 25.37 -5 23 92 -6.1 21.1
05:45 1030 30.42 859 25.37 -5 23 92 -6.1 21.1
05:50 1030 30.42 859 25.37 -5.1 22.8 92 -6.2 20.9
05:55 1030 30.42 859 25.37 -5.2 22.6 92 -6.3 20.7
06:00 1030 30.42 859 25.37 -5.3 22.5 92 -6.4 20.5
06:05 1030 30.42 859 25.37 -5.3 22.4 92 -6.4 20.5
06:10 1030 30.42 859 25.37 -5.4 22.3 92 -6.4 20.4
06:15 1030 30.42 859 25.37 -5.4 22.3 92 -6.5 20.3
06:20 1030 30.42 859 25.37 -5.6 22 92 -6.7 20
06:25 1030 30.42 859 25.37 -5.7 21.7 92 -6.8 19.7
06:30 1030 30.42 859 25.37 -5.9 21.5 92 -7 19.4
06:35 1030 30.42 859 25.37 -6 21.2 92 -7.1 19.1
06:40 1030 30.42 859 25.37 -6 21.1 92 -7.1 19.2
06:45 1030 30.42 859 25.37 -6 21.1 92 -7.2 19.1
06:50 1030 30.42 859 25.37 -6.1 21 92 -7.2 19
06:55 1030 30.42 859 25.37 -6.1 21 92 -7.2 19
07:00 1030 30.42 859 25.37 -6.1 21 92 -7.2 19
07:05 1030 30.42 859 25.37 -6.1 21 92 -7.2 19.1
07:10 1030 30.42 859 25.37 -6 21.1 92 -7.1 19.1
07:15 1030 30.42 859 25.37 -6 21.3 92 -7.1 19.2
07:20 1030 30.42 859 25.37 -6.1 21 92 -7.3 18.9
07:25 1030 30.42 859 25.37 -6.1 21 92 -7.2 19
07:30 1030 30.42 859 25.37 -5.9 21.4 92 -7 19.4
07:35 1030 30.42 859 25.37 -5.7 21.8 92 -6.8 19.8
07:40 1030 30.42 859 25.37 -5.7 21.7 92 -6.9 19.6
07:45 1030 30.42 859 25.37 -5.8 21.5 92 -6.9 19.5
07:50 1030 30.42 859 25.37 -6 21.3 92 -7.1 19.2
07:55 1030 30.42 859 25.37 -5.9 21.3 92 -7 19.3
08:00 1030 30.42 859 25.37 -5.8 21.5 92 -6.9 19.5
08:05 1030 30.42 859 25.37 -5.8 21.6 92 -6.9 19.6
08:10 1030 30.42 859 25.37 -5.8 21.6 92 -7 19.5
08:15 1030 30.42 859 25.37 -5.9 21.4 92 -7 19.3
08:20 1030 30.42 859 25.37 -5.8 21.6 92 -6.9 19.6
08:25 1030 30.42 859 25.37 -5.6 21.9 92 -6.7 20
08:30 1030 30.42 859 25.37 -5.5 22 92 -6.6 20.1
08:35 1030 30.42 859 25.37 -5.6 22 91 -6.8 19.8
08:40 1030 30.42 859 25.37 -5.7 21.7 92 -6.8 19.7
08:45 1030 30.42 859 25.37 -5.4 22.4 93 -6.4 20.5
08:50 1030 30.42 859 25.37 -5.1 22.8 92 -6.2 20.8
08:55 1030 30.42 859 25.37 -5.4 22.3 92 -6.5 20.4
09:00 1030 30.42 859 25.37 -5.3 22.5 92 -6.4 20.5
09:05 1030 30.42 859 25.37 -5.2 22.7 93 -6.2 20.9
09:10 1030 30.42 859 25.37 -5 23 92 -6.1 21
09:15 1030 30.42 859 25.37 -4.8 23.3 92 -5.9 21.3
09:20 1030 30.42 859 25.37 -4.8 23.3 91 -6 21.1
09:25 1030 30.42 859 25.37 -5.2 22.6 91 -6.5 20.3
09:30 1030 30.42 859 25.37 -5.3 22.5 92 -6.5 20.4
09:35 1030 30.42 859 25.37 -5.3 22.5 91 -6.5 20.3
09:40 1030 30.42 859 25.37 -5 23.1 93 -6 21.2
09:45 1030 30.42 859 25.37 -4.2 24.5 91 -5.4 22.3
09:50 1030 30.42 859 25.37 -4 24.9 91 -5.2 22.7
09:55 1030 30.42 859 25.37 -4.5 23.8 91 -5.8 21.5
10:00 1030 30.42 859 25.37 -4.7 23.5 91 -5.9 21.3
10:05 1029 30.39 859 25.37 -4.8 23.4 91 -6 21.2
10:10 1029 30.39 859 25.37 -4.9 23.2 90 -6.3 20.7
10:15 1029 30.39 859 25.37 -5.2 22.6 90 -6.6 20.2
10:20 1029 30.39 858 25.34 -5.3 22.4 91 -6.6 20.1
10:25 1029 30.39 858 25.34 -5.2 22.7 91 -6.4 20.4
10:30 1029 30.39 858 25.34 -4.9 23.2 92 -6.1 21.1
10:35 1029 30.39 858 25.34 -4.3 24.2 93 -5.3 22.4
10:40 1029 30.39 858 25.34 -3.7 25.4 92 -4.9 23.3
10:45 1029 30.39 858 25.34 -3.5 25.8 91 -4.7 23.6
10:50 1029 30.39 858 25.34 -3.3 26 91 -4.7 23.6
10:55 1029 30.39 858 25.34 -3.1 26.4 91 -4.5 24
11:00 1029 30.39 858 25.34 -2.8 27 90 -4.2 24.5
11:05 1028 30.36 858 25.34 -2.5 27.5 90 -3.9 24.9
11:10 1028 30.36 858 25.34 -2.3 27.8 88 -4 24.8
11:15 1028 30.36 858 25.34 -2.6 27.3 89 -4.1 24.6
11:20 1028 30.36 858 25.34 -2.5 27.5 87 -4.3 24.2
11:25 1028 30.36 858 25.34 -2.8 26.9 89 -4.4 24
11:30 1028 30.36 857 25.31 -2.7 27.1 88 -4.5 23.9
11:35 1028 30.36 857 25.31 -3.2 26.2 88 -4.9 23.2
11:40 1028 30.36 857 25.31 -2.9 26.9 89 -4.5 24
11:45 1028 30.36 857 25.31 -2.7 27.2 88 -4.4 24.1
11:50 1028 30.36 857 25.31 -2.8 27 87 -4.7 23.6
11:55 1028 30.36 857 25.31 -2.7 27.1 88 -4.4 24.1
12:00 1028 30.36 857 25.31 -2.3 27.8 85 -4.5 23.8
12:05 1028 30.36 857 25.31 -3.1 26.4 87 -4.9 23.1
12:10 1027 30.33 857 25.31 -3 26.6 89 -4.5 23.9
12:15 1027 30.33 857 25.31 -2.3 27.9 88 -4 24.8
12:20 1027 30.33 856 25.28 -1.6 29.2 87 -3.4 25.8
12:25 1027 30.33 856 25.28 -1.3 29.6 86 -3.4 25.8
12:30 1027 30.33 856 25.28 -1.2 29.8 85 -3.5 25.8
12:35 1027 30.33 856 25.28 -1.4 29.4 84 -3.8 25.1
12:40 1027 30.33 856 25.28 -1.9 28.5 84 -4.3 24.3
12:45 1027 30.33 856 25.28 -2.1 28.2 86 -4.1 24.6
12:50 1027 30.33 856 25.28 -1.7 28.9 83 -4.2 24.5
12:55 1027 30.33 856 25.28 -1.8 28.8 84 -4.2 24.5
13:00 1026 30.3 856 25.28 -1.9 28.6 82 -4.5 23.9
13:05 1026 30.3 855 25.25 -2.1 28.2 83 -4.6 23.8
13:10 1026 30.3 855 25.25 -2.1 28.3 81 -4.8 23.3
13:15 1026 30.3 855 25.25 -2.3 27.8 83 -4.8 23.3
13:20 1026 30.3 855 25.25 -2.1 28.2 81 -5 23.1
13:25 1026 30.3 855 25.25 -2 28.4 82 -4.7 23.5
13:30 1026 30.3 855 25.25 -1.1 30 75 -5 23
13:35 1026 30.3 855 25.25 -1.6 29.1 80 -4.6 23.7
13:40 1026 30.3 855 25.25 -1.5 29.3 75 -5.3 22.4
13:45 1026 30.3 855 25.25 -1.7 29 76 -5.4 22.2
13:50 1026 30.3 855 25.25 -2.1 28.3 76 -5.7 21.8
13:55 1026 30.3 855 25.25 -2.1 28.2 77 -5.6 21.9
14:00 1026 30.3 855 25.25 -1.3 29.7 73 -5.5 22.1
14:05 1026 30.3 855 25.25 -1.3 29.7 72 -5.7 21.8
14:10 1026 30.3 855 25.25 -2 28.3 75 -6 21.2
14:15 1026 30.3 855 25.25 -2.9 26.8 77 -6.4 20.5
14:20 1026 30.3 855 25.25 -3.1 26.4 77 -6.5 20.2
14:25 1026 30.3 855 25.25 -3.5 25.6 78 -6.8 19.8
14:30 1026 30.3 855 25.25 -4.3 24.2 82 -6.9 19.5
14:35 1026 30.3 855 25.25 -4.4 24 81 -7.2 19
14:40 1026 30.3 855 25.25 -4.4 24.1 80 -7.3 18.9
14:45 1026 30.3 855 25.25 -4.8 23.4 84 -7.1 19.3
14:50 1025 30.27 855 25.25 -5 23.1 84 -7.3 18.9
14:55 1025 30.27 855 25.25 -5.1 22.8 85 -7.2 19
15:00 1025 30.27 855 25.25 -5.2 22.7 86 -7.1 19.2
15:05 1025 30.27 854 25.22 -4.9 23.1 85 -7.1 19.3
15:10 1025 30.27 855 25.25 -4.7 23.5 84 -7.1 19.3
15:15 1025 30.27 855 25.25 -4.8 23.3 84 -7.1 19.3
15:20 1025 30.27 855 25.25 -4.9 23.2 84 -7.2 19.1
15:25 1025 30.27 854 25.22 -5.1 22.8 85 -7.2 19
15:30 1025 30.27 854 25.22 -5.3 22.5 86 -7.2 19
15:35 1025 30.27 854 25.22 -5.5 22.1 87 -7.4 18.7
15:40 1025 30.27 854 25.22 -5.7 21.8 88 -7.4 18.8
15:45 1025 30.27 854 25.22 -5.7 21.7 88 -7.4 18.7
15:50 1025 30.27 854 25.22 -5.7 21.7 89 -7.3 18.8
15:55 1025 30.27 854 25.22 -5.7 21.8 88 -7.4 18.7
16:00 1025 30.27 854 25.22 -5.8 21.5 88 -7.5 18.5
16:05 1025 30.27 854 25.22 -6 21.2 89 -7.6 18.3
16:10 1025 30.27 854 25.22 -6.2 20.9 90 -7.6 18.4
16:15 1025 30.27 854 25.22 -6.2 20.8 90 -7.6 18.3
16:20 1025 30.27 854 25.22 -6.4 20.4 90 -7.8 18
16:25 1025 30.27 854 25.22 -6.5 20.3 90 -7.9 17.7
16:30 1025 30.27 854 25.22 -6.8 19.8 90 -8.2 17.3
16:35 1025 30.27 854 25.22 -6.9 19.6 90 -8.3 17.1
16:40 1025 30.27 854 25.22 -7 19.4 90 -8.4 16.9
16:45 1025 30.27 854 25.22 -7.1 19.3 90 -8.5 16.8
16:50 1025 30.27 854 25.22 -7 19.3 90 -8.5 16.8
16:55 1025 30.27 854 25.22 -7 19.5 91 -8.3 17.1
17:00 1025 30.27 854 25.22 -6.6 20.1 90 -8 17.6
17:05 1025 30.27 854 25.22 -6.6 20.1 90 -8 17.6
17:10 1025 30.27 854 25.22 -6.6 20.2 90 -8 17.7
17:15 1025 30.27 854 25.22 -6.6 20.1 90 -8 17.5
17:20 1025 30.27 854 25.22 -6.7 20 90 -8.1 17.4
17:25 1025 30.27 854 25.22 -6.7 19.9 89 -8.3 17.1
17:30 1025 30.27 854 25.22 -6.7 20 88 -8.4 17
17:35 1025 30.27 854 25.22 -6.5 20.3 89 -8.1 17.5
17:40 1025 30.27 854 25.22 -6.4 20.6 88 -8 17.6
17:45 1025 30.27 854 25.22 -6.4 20.5 90 -7.8 18
17:50 1025 30.27 854 25.22 -6 21.3 87 -7.8 18
17:55 1025 30.27 854 25.22 -5.9 21.4 87 -7.8 18
18:00 1025 30.27 854 25.22 -5.7 21.7 86 -7.8 18
18:05 1025 30.27 854 25.22 -5.6 22 86 -7.6 18.4
18:10 1025 30.27 854 25.22 -5.5 22.1 84 -7.7 18.1
18:15 1025 30.27 854 25.22 -5.8 21.5 83 -8.3 17.1
18:20 1025 30.27 854 25.22 -5.9 21.3 86 -7.9 17.8
18:25 1025 30.27 854 25.22 -5.6 22 87 -7.4 18.8
18:30 1025 30.27 854 25.22 -5.5 22 86 -7.6 18.4
18:35 1024 30.24 854 25.22 -5.8 21.6 86 -7.7 18.1
18:40 1024 30.24 854 25.22 -6 21.2 87 -7.8 18
18:45 1024 30.24 854 25.22 -6 21.2 87 -7.8 18
18:50 1024 30.24 854 25.22 -6 21.2 87 -7.9 17.8
18:55 1024 30.24 853 25.19 -6.3 20.8 88 -8 17.6
19:00 1024 30.24 853 25.19 -6.1 21 88 -7.8 17.9
19:05 1024 30.24 853 25.19 -5.9 21.4 87 -7.7 18.1
19:10 1024 30.24 853 25.19 -5.8 21.6 87 -7.6 18.3
19:15 1024 30.24 853 25.19 -5.3 22.4 86 -7.4 18.7
19:20 1024 30.24 853 25.19 -4.8 23.4 84 -7.1 19.1
19:25 1024 30.24 853 25.19 -4.5 24 82 -7.2 19.1
19:30 1024 30.24 853 25.19 -4.7 23.5 83 -7.1 19.2
19:35 1024 30.24 853 25.19 -4.7 23.5 82 -7.3 18.9
19:40 1024 30.24 853 25.19 -4.5 23.9 82 -7.2 19.1
19:45 1024 30.24 853 25.19 -3.8 25.2 78 -7 19.3
19:50 1024 30.24 853 25.19 -3.9 25 80 -6.8 19.7
19:55 1024 30.24 853 25.19 -4.1 24.7 80 -7 19.5
20:00 1024 30.24 853 25.19 -4.3 24.2 80 -7.2 19
20:05 1024 30.24 853 25.19 -4.7 23.6 81 -7.5 18.5
20:10 1024 30.24 853 25.19 -4.6 23.7 79 -7.7 18.2
20:15 1024 30.24 853 25.19 -4.7 23.5 79 -7.9 17.8
20:20 1024 30.24 853 25.19 -5.1 22.7 81 -7.9 17.9
20:25 1024 30.24 853 25.19 -5.5 22.1 84 -7.8 17.9
20:30 1024 30.24 853 25.19 -5.7 21.8 86 -7.6 18.3
20:35 1024 30.24 853 25.19 -5.5 22.2 86 -7.4 18.6
20:40 1024 30.24 853 25.19 -4.9 23.2 86 -6.9 19.5
20:45 1024 30.24 853 25.19 -4.2 24.4 83 -6.7 19.9
20:50 1024 30.24 853 25.19 -4.2 24.4 82 -6.9 19.5
20:55 1024 30.24 853 25.19 -4.6 23.7 83 -7.1 19.2
21:00 1024 30.24 853 25.19 -5.1 22.8 85 -7.2 19
21:05 1024 30.24 853 25.19 -5.1 22.7 86 -7.1 19.2
21:10 1024 30.24 853 25.19 -5.4 22.2 87 -7.3 18.9
21:15 1024 30.24 853 25.19 -5.5 22.1 85 -7.7 18.1
21:20 1024 30.24 853 25.19 -5.5 22.1 87 -7.4 18.7
21:25 1024 30.24 853 25.19 -4.7 23.5 81 -7.6 18.4
21:30 1024 30.24 853 25.19 -4.7 23.5 82 -7.4 18.7
21:35 1024 30.24 853 25.19 -4.4 24.2 81 -7.1 19.2
21:40 1024 30.24 853 25.19 -3.9 25 80 -6.9 19.6
21:45 1023 30.21 853 25.19 -4.3 24.2 82 -7 19.3
21:50 1023 30.21 853 25.19 -4.8 23.4 83 -7.2 19
21:55 1023 30.21 853 25.19 -4.9 23.1 84 -7.2 19
22:00 1023 30.21 853 25.19 -4.2 24.4 81 -7.1 19.2
22:05 1023 30.21 852 25.16 -4 24.8 81 -6.8 19.7
22:10 1023 30.21 852 25.16 -3.7 25.3 79 -6.9 19.7
22:15 1023 30.21 852 25.16 -3.6 25.5 79 -6.7 20
22:20 1023 30.21 852 25.16 -3.6 25.6 78 -6.9 19.6
22:25 1023 30.21 852 25.16 -3.8 25.1 79 -7 19.4
22:30 1023 30.21 852 25.16 -4.2 24.5 80 -7.2 19.1
22:35 1023 30.21 852 25.16 -4.6 23.8 80 -7.4 18.6
22:40 1023 30.21 852 25.16 -5 22.9 82 -7.7 18.2
22:45 1023 30.21 852 25.16 -5.5 22.1 84 -7.8 17.9
22:50 1023 30.21 852 25.16 -5.1 22.8 81 -7.9 17.9
22:55 1023 30.21 852 25.16 -4.9 23.3 80 -7.7 18.1
23:00 1023 30.21 852 25.16 -4.7 23.6 79 -7.9 17.8
23:05 1023 30.21 852 25.16 -5.1 22.8 79 -8.2 17.2
23:10 1023 30.21 852 25.16 -5.5 22.1 81 -8.3 17
23:15 1023 30.21 852 25.16 -5.7 21.8 82 -8.3 17.1
23:20 1023 30.21 852 25.16 -5.9 21.4 81 -8.6 16.5
23:25 1023 30.21 852 25.16 -6.3 20.6 85 -8.5 16.7
23:30 1023 30.21 852 25.16 -6.2 20.9 86 -8.1 17.4
23:35 1022 30.18 852 25.16 -5.5 22.1 83 -8 17.7
23:40 1023 30.21 852 25.16 -5.4 22.2 83 -7.9 17.7
23:45 1023 30.21 852 25.16 -5.4 22.2 83 -7.8 17.9
23:50 1022 30.18 852 25.16 -5.1 22.8 82 -7.8 18
23:55 1022 30.18 852 25.16 -4.5 23.8 79 -7.6 18.3
24:00 1022 30.18 852 25.16 -4.5 23.9 78 -7.7 18.2